Miscellaneous Local Product
Issued by NWS Hastings, NE

Home | Current Version | Previous Version | Graphics & Text | Print | Product List | Glossary On
Versions: 1 2 3 4 5 6 7 8 9 10 11 12 13 14 15 16 17 18 19 20 21 22 23 24 25 26 27 28 29 30 31 32 33 34 35 36 37 38 39 40 41 42 43 44 45 46 47 48 49 50
000
AXUS43 KGID 191602
MISGRI

GID CWA HOURLY WEATHER ROUNDUP
NATIONAL WEATHER SERVICE HASTINGS NE
1100 AM CDT FRI SEP 19 2014

NOTE: "FAIR" INDICATES FEW OR NO CLOUDS BELOW 12,000 FEET WITH NO
SIGNIFICANT WEATHER AND/OR OBSTRUCTIONS TO VISIBILITY.

...SOUTH CENTRAL NEBRASKA...

CITY           SKY/WX    TMP DP  RH WIND       PRES   REMARKS
GRAND ISLAND   SUNNY     77  63  61 S16       29.89S
HASTINGS       SUNNY     76  61  59 S13       29.91S
KEARNEY        SUNNY     75  64  69 S20       29.90S
ORD            SUNNY     74  64  71 SW12      29.84F
YORK           SUNNY     73  66  78 S12       29.90F
AURORA         SUNNY     75  64  66 S15       29.89F
LEXINGTON      SUNNY     75  65  71 SW10G18   29.89R
HOLDREGE       SUNNY     73  63  71 S15       29.91S
HEBRON         SUNNY     77  62  59 SW12G18   29.93F

...NEBRASKA PANHANDLE...

CITY           SKY/WX    TMP DP  RH WIND       PRES   REMARKS
CHADRON        MOSUNNY   76  54  46 SW5       29.86R
ALLIANCE       SUNNY     72  56  57 NW7       29.90S
SCOTTSBLUFF    SUNNY     73  52  47 NW9       29.94R
SIDNEY         SUNNY     76  50  40 NW10      29.96S

...WESTERN AND NORTH CENTRAL NEBRASKA...

CITY           SKY/WX    TMP DP  RH WIND       PRES   REMARKS
VALENTINE      MOSUNNY   74  61  63 W9        29.79S
AINSWORTH      MOSUNNY   75  60  59 SW15      29.80S
ONEILL         SUNNY     76  64  67 SW13G24   29.79S
BROKEN BOW     SUNNY     77  62  59 SW13      29.87S
IMPERIAL       SUNNY     78  59  51 W8G17     29.92R
NORTH PLATTE   SUNNY     72  61  68 NW8       29.89R
MCCOOK         SUNNY     79  63  57 SW8       29.89F

...EASTERN NEBRASKA...

CITY           SKY/WX    TMP DP  RH WIND       PRES   REMARKS
NORFOLK        MOSUNNY   76  66  71 S10       29.84S
SO SIOUX CITY  MOSUNNY   73  64  73 S14G25    29.85S
TEKAMAH        MOSUNNY   75  65  70 S21G26    29.88F
ALBION         MOSUNNY   74  64  69 S15       29.85F
OMAHA EPPLEY   PTSUNNY   70  63  78 S17       29.92S HAZE
OFFUTT AFB     CLOUDY    71  70  98 S14       29.93S
MILLARD        MOSUNNY   73  66  77 S13G21    29.91F
LINCOLN        SUNNY     75  65  70 S15       29.91F
NEBRASKA CITY  CLOUDY    67  64  90 S17       29.96F
BEATRICE       SUNNY     76  66  71 S15       29.95S
FALLS CITY     CLOUDY    66  63  90 S13       29.98S

...NORTHERN KANSAS...

CITY           SKY/WX    TMP DP  RH WIND       PRES   REMARKS
GOODLAND       SUNNY     77  58  51 SW15G22   29.97R
HILL CITY      SUNNY     79  63  57 SW13G22   29.95R
NORTON         SUNNY     79  59  50 S17G23    29.91F
SMITH CENTER   SUNNY     79  63  57 S16       29.94F
BELOIT         SUNNY     79  64  61 S9        29.94S
HAYS           SUNNY     79  63  57 SW15      29.97S
RUSSELL        SUNNY     79  63  57 S16       29.95S
CONCORDIA      SUNNY     77  66  68 S14       29.95F
SALINA         SUNNY     79  66  64 S9        29.97F
TOPEKA         CLOUDY    69  66  90 SE9       30.01F



USA.gov is the U.S. government's official web portal to all federal, state and local government web resources and services.